FLOCK 2K-43 (42874 NORAD) Tracking and Keplerian Element Data

This shows tracking and keplerian element data for the satellite.

Feedback or suggestion? Click here.




ElementValue
Catalog42874
NameFLOCK 2K-43
Epoch Orbit20799
Epoch Day90.87035001
Epoch Year2021
RAAN302.5196
Inclination96.8626
Eccentricity0.0012395
Argument of Perigee22.8325
Mean Anonmoly337.347
Mean Motion15.38133526
Decay Rate7.193E-05
L11 42874U 17042BB 21090.87035001 .00007193 00000-0 19312-3 0 9994
L22 42874 96.8626 302.5196 0012395 22.8325 337.3470 15.38133526207993



Live tracking and technical data element details for FLOCK 2K-43 (NORAD 42874). FLOCK 2K-43 can be tracked NOW for your location showing map with azimuth and elevation plus other details from your city location.







IsCatalogInMostPopularTable: catalog: 42874, numindb: 667
Update: records affected: 1



GetName: 42874 FLOCK 2K-43

Hit Count: updated at: Mon, 18 May 2026 09:29:26 GMT